Location: Lugrin
(46.4033°N, 6.6674°E)
Time: 15:18:02
(UTC+00:00)

CZ-2C R/B - Pass Details

Date: 18 September 2020
Orbit: 704 x 907 km, 98.1° (Epoch: 23 October)

Event Time Altitude Azimuth Distance (km) Brightness Sun altitude
Rises 17:56:21 0° 152° (SSE) 3,243 5.9 -3.9°
Reaches altitude 10° 17:58:38 10° 148° (SSE) 2,349 5.2 -4.3°
Maximum altitude 18:03:43 57° 71° (ENE) 965 3.3 -5.2°
Drops below altitude 10° 18:09:08 10° 354° (N) 2,496 5.9 -6.1°
Sets 18:11:37 0° 350° (N) 3,464 6.6 -6.5°
